Location: Unspecified
(43.4680°N, 87.1740°E)
Time: 21:12:17
(UTC+00:00)

Cosmos 1459 Rocket - Pass Details

Date: 17 April 2021
Orbit: 938 x 999 km, 83.0° (Epoch: 11 May)

Event Time Altitude Azimuth Distance (km) Brightness Sun altitude
Rises 22:21:46 0° 354° (N) 3,731 7.3 -11.4°
Reaches altitude 10° 22:24:20 10° 357° (N) 2,778 6.7 -11.0°
Maximum altitude 22:30:42 68° 80° (E) 1,069 4.5 -9.9°
Drops below altitude 10° 22:36:59 10° 163° (SSE) 2,742 6.3 -8.9°
Sets 22:39:30 0° 166° (SSE) 3,679 6.9 -8.5°
